Weather History for KFSO - November, 2013

Change the Weather History Date:

Friday, November 15, 2013

  Actual Average (KPBG) Record (KPBG)
Temperature  
Mean Temperature 48 °F 37 °F  
Max Temperature 55 °F 46 °F 66 °F (1956)
Min Temperature 41 °F 28 °F 13 °F (1967)
Degree Days  
Heating Degree Days 17 28  
Month to date heating degree days 381  
Since 1 July heating degree days 1164  
Cooling Degree Days 0 0  
Month to date cooling degree days 0  
Year to date cooling degree days 346  
Moisture  
Dew Point 21 °F    
Average Humidity 36    
Maximum Humidity 53    
Minimum Humidity 25    
Precipitation  
Precipitation 0.00 in - 1.00 in (2007)
Month to date precipitation  
Year to date precipitation  
Sea Level Pressure  
Sea Level Pressure 30.07 in    
Wind  
Wind Speed 6 mph (South)    
Max Wind Speed 12 mph    
Max Gust Speed 17 mph    
Visibility 10 miles    
Events      
T = Trace of Precipitation, MM = Missing Value Source: NWS Daily Summary

Daily Weather History Graph

Daily Weather History Graph

Search for Another Location

Airport or City:

Trip Planner

Search our weather history database for the weather conditions in past years. The results will help you decide how hot, cold, wet, or windy it might be!

Date:

Astronomy

Nov. 15, 2013 Rise Set
Actual Time 6:50 AM EST 4:23 PM EST
Civil Twilight 6:18 AM EST 4:55 PM EST
Nautical Twilight 5:42 AM EST 5:30 PM EST
Astronomical Twilight 5:08 AM EST 6:05 PM EST
Moon 3:22 PM EST (11/15) 4:39 AM EST (11/15)
Length of Visible Light 10h 36m
Length of Day
9h 33m
Waxing Gibbous, 96% of the Moon is Illuminated
Nov 15
Waxing Gibbous
Nov 17
Full
Nov 25
Last Quarter
Dec 2
New
Dec 9
First Quarter

Hourly Weather History & Observations

Time (EST) Temp. Windchill Dew Point Humidity Pressure Visibility Wind Dir Wind Speed Gust Speed Precip Events Conditions
12:15 AM 43.3 °F 38.6 °F 23.5 °F 46% 30.01 in 10.0 mi South 8.1 mph - N/A   Overcast
12:35 AM 43.3 °F 39.9 °F 23.2 °F 45% 30.01 in 10.0 mi South 5.8 mph - N/A   Overcast
12:55 AM 43.3 °F 39.9 °F 22.5 °F 44% 30.01 in 10.0 mi South 5.8 mph - N/A   Mostly Cloudy
1:15 AM 42.1 °F 38.4 °F 22.1 °F 45% 30.01 in 10.0 mi South 5.8 mph - N/A   Scattered Clouds
1:55 AM 43.0 °F 38.8 °F 21.9 °F 43% 30.02 in 10.0 mi South 6.9 mph - N/A   Overcast
2:15 AM 43.3 °F 39.2 °F 21.4 °F 42% 30.02 in 10.0 mi South 6.9 mph - N/A   Overcast
2:35 AM 43.3 °F 39.2 °F 21.0 °F 41% 30.02 in 10.0 mi South 6.9 mph - N/A   Overcast
2:55 AM 42.4 °F 38.1 °F 20.1 °F 41% 30.02 in 10.0 mi South 6.9 mph - N/A   Mostly Cloudy
3:15 AM 43.3 °F 39.9 °F 19.9 °F 39% 30.02 in 10.0 mi South 5.8 mph - N/A   Mostly Cloudy
3:35 AM 43.3 °F 39.2 °F 19.8 °F 39% 30.02 in 10.0 mi South 6.9 mph - N/A   Mostly Cloudy
3:55 AM 43.3 °F 38.6 °F 19.4 °F 38% 30.03 in 10.0 mi South 8.1 mph - N/A   Overcast
4:15 AM 42.4 °F 38.8 °F 19.0 °F 39% 30.03 in 10.0 mi South 5.8 mph - N/A   Scattered Clouds
4:35 AM 42.8 °F 38.0 °F 18.9 °F 38% 30.03 in 10.0 mi South 8.1 mph - N/A   Clear
4:55 AM 42.1 °F 37.7 °F 18.5 °F 39% 30.03 in 10.0 mi South 6.9 mph - N/A   Clear
5:15 AM 42.1 °F 38.4 °F 18.9 °F 39% 30.03 in 10.0 mi South 5.8 mph - N/A   Clear
5:35 AM 41.9 °F 37.5 °F 18.9 °F 40% 30.04 in 10.0 mi South 6.9 mph - N/A   Clear
5:55 AM 41.0 °F 37.1 °F 18.5 °F 40% 30.04 in 10.0 mi South 5.8 mph - N/A   Clear
6:15 AM 41.0 °F 37.1 °F 18.5 °F 40% 30.05 in 10.0 mi South 5.8 mph - N/A   Clear
6:35 AM 41.0 °F 36.4 °F 19.0 °F 41% 30.05 in 10.0 mi South 6.9 mph - N/A   Clear
6:55 AM 41.0 °F 38.0 °F 18.9 °F 41% 30.06 in 10.0 mi South 4.6 mph - N/A   Clear
7:15 AM 41.0 °F 36.4 °F 18.9 °F 41% 30.06 in 10.0 mi South 6.9 mph - N/A   Clear
7:35 AM 41.0 °F 37.1 °F 18.1 °F 40% 30.07 in 10.0 mi South 5.8 mph - N/A   Clear
7:55 AM 42.1 °F 38.4 °F 18.0 °F 38% 30.07 in 10.0 mi South 5.8 mph - N/A   Clear
8:15 AM 43.3 °F 39.9 °F 18.3 °F 37% 30.06 in 10.0 mi South 5.8 mph - N/A   Clear
8:35 AM 44.2 °F 39.2 °F 17.6 °F 34% 30.07 in 10.0 mi South 9.2 mph - N/A   Clear
8:55 AM 43.9 °F 39.9 °F 16.7 °F 34% 30.08 in 10.0 mi South 6.9 mph - N/A   Clear
9:15 AM 44.6 °F 40.2 °F 17.1 °F 33% 30.08 in 10.0 mi South 8.1 mph - N/A   Clear
9:35 AM 48.4 °F - 18.9 °F 31% 30.08 in 10.0 mi SSW 9.2 mph - N/A   Clear
9:55 AM 48.4 °F - 18.3 °F 30% 30.08 in 10.0 mi South 11.5 mph - N/A   Clear
10:15 AM 50.9 °F - 19.6 °F 29% 30.09 in 10.0 mi SSW 6.9 mph - N/A   Clear
10:35 AM 50.9 °F - 19.6 °F 29% 30.08 in 10.0 mi SSW 6.9 mph - N/A   Clear
10:55 AM 50.9 °F - 19.0 °F 28% 30.08 in 10.0 mi SSW 8.1 mph - N/A   Clear
11:15 AM 52.3 °F - 19.8 °F 28% 30.07 in 10.0 mi SSW 9.2 mph - N/A   Clear
11:35 AM 54.3 °F - 20.5 °F 27% 30.07 in 10.0 mi SSW 6.9 mph - N/A   Clear
11:55 AM 53.8 °F - 20.1 °F 27% 30.06 in 10.0 mi SSW 6.9 mph - N/A   Clear
12:15 PM 53.6 °F - 19.2 °F 26% 30.05 in 10.0 mi SSW 6.9 mph 16.1 mph N/A   Clear
12:35 PM 55.9 °F - 20.7 °F 25% 30.05 in 10.0 mi SSW 9.2 mph 16.1 mph N/A   Clear
12:55 PM 55.9 °F - 21.4 °F 26% 30.05 in 10.0 mi South 5.8 mph 17.3 mph N/A   Clear
1:15 PM 55.9 °F - 21.4 °F 26% 30.05 in 10.0 mi South 6.9 mph - N/A   Clear
1:35 PM 55.9 °F - 21.2 °F 26% 30.04 in 10.0 mi South 6.9 mph - N/A   Clear
1:55 PM 55.9 °F - 20.8 °F 26% 30.03 in 10.0 mi South 6.9 mph - N/A   Clear
2:15 PM 55.9 °F - 20.3 °F 25% 30.03 in 10.0 mi South 6.9 mph - N/A   Clear
2:35 PM 55.9 °F - 20.3 °F 25% 30.04 in 10.0 mi South 4.6 mph - N/A   Clear
2:55 PM 55.9 °F - 20.3 °F 25% 30.05 in 10.0 mi SSW 4.6 mph - N/A   Clear
3:15 PM 55.9 °F - 22.1 °F 27% 30.05 in 10.0 mi SSW 6.9 mph - N/A   Clear
3:35 PM 54.5 °F - 24.6 °F 31% 30.06 in 10.0 mi SSW 3.5 mph - N/A   Clear
3:55 PM 51.8 °F - 24.1 °F 34% 30.06 in 10.0 mi Calm Calm - N/A   Clear
4:15 PM 50.9 °F - 25.7 °F 38% 30.05 in 10.0 mi Calm Calm - N/A   Clear
4:35 PM 50.9 °F - 25.3 °F 37% 30.06 in 10.0 mi South 3.5 mph - N/A   Clear
4:55 PM 50.9 °F - 25.3 °F 37% 30.07 in 10.0 mi South 3.5 mph - N/A   Clear
5:15 PM 47.7 °F - 24.1 °F 40% 30.07 in 10.0 mi SSE 4.6 mph - N/A   Clear
5:35 PM 48.4 °F - 23.0 °F 37% 30.07 in 10.0 mi South 3.5 mph - N/A   Clear
5:55 PM 48.0 °F - 22.6 °F 37% 30.08 in 10.0 mi SE 3.5 mph - N/A   Clear
6:15 PM 45.1 °F 42.8 °F 21.2 °F 39% 30.08 in 10.0 mi South 4.6 mph - N/A   Clear
6:35 PM 47.8 °F - 21.9 °F 36% 30.08 in 10.0 mi South 3.5 mph - N/A   Clear
6:55 PM 48.4 °F - 21.2 °F 34% 30.09 in 10.0 mi South 4.6 mph - N/A   Scattered Clouds
7:15 PM 48.4 °F - 21.2 °F 34% 30.09 in 10.0 mi South 3.5 mph - N/A   Mostly Cloudy
7:35 PM 50.9 °F - 22.3 °F 33% 30.09 in 10.0 mi South 4.6 mph - N/A   Mostly Cloudy
7:55 PM 50.9 °F - 22.1 °F 32% 30.10 in 10.0 mi South 3.5 mph - N/A   Overcast
8:15 PM 48.6 °F - 20.3 °F 33% 30.10 in 10.0 mi South 3.5 mph - N/A   Overcast
8:35 PM 48.4 °F - 20.3 °F 33% 30.10 in 10.0 mi Calm Calm - N/A   Scattered Clouds
8:55 PM 45.5 °F - 20.7 °F 37% 30.11 in 10.0 mi Calm Calm - N/A   Clear
9:15 PM 45.0 °F - 20.8 °F 38% 30.11 in 10.0 mi Calm Calm - N/A   Clear
9:35 PM 43.3 °F - 21.7 °F 42% 30.12 in 10.0 mi Calm Calm - N/A   Clear
9:55 PM 45.7 °F - 20.8 °F 37% 30.13 in 10.0 mi Calm Calm - N/A   Clear
10:15 PM 42.8 °F - 22.6 °F 45% 30.14 in 10.0 mi Calm Calm - N/A   Clear
10:35 PM 41.9 °F 39.0 °F 23.5 °F 48% 30.13 in 10.0 mi SSE 4.6 mph - N/A   Clear
10:55 PM 43.7 °F 41.1 °F 21.6 °F 41% 30.14 in 10.0 mi South 4.6 mph - N/A   Clear
11:15 PM 42.4 °F 40.7 °F 22.5 °F 45% 30.15 in 10.0 mi SSE 3.5 mph - N/A   Clear
11:35 PM 41.2 °F 39.2 °F 23.4 °F 49% 30.15 in 10.0 mi SSE 3.5 mph - N/A   Clear
11:55 PM 41.0 °F 39.0 °F 25.0 °F 53% 30.15 in 10.0 mi ESE 3.5 mph - N/A   Clear